Miscellaneous Hydrologic Data Report
Issued by NWS (Baltimore/Washington) Sterling, VA
1 of 54 available versions  First Miscellaneous Hydrologic Data Report Previous Miscellaneous Hydrologic Data Report  Print this page Close this Window


000
ASUS41 KLWX 162311
RWRLWX

REGIONAL WEATHER ROUNDUP
NATIONAL WEATHER SERVICE BALTIMORE MD/WASHINGTON DC
700 PM EDT WED AUG 16 2017

Note: "FAIR" indicates few or no clouds below 12,000 feet
with no significant weather and/or obstructions to visibility.
 TC=TEMPERATURE CELSIUS

 * =Non NWS site. Station does not report precipitation (e.g. rain,
    snow, etc.), thunder, or fog.

DCZ001-MDZ009-015-VAZ040>042-051-053>054-170000-
WASHINGTON METRO

CITY           SKY/WX    TMP DP  RH WIND       PRES   REMARKS
WASHINGTON NAT PTSUNNY   87  68  52 NW8       29.97F HX  90
DULLES         LGT RAIN  82  70  66 W9        29.99R
ANDREWS AFB    SUNNY     83  68  59 N6        29.97S
FT BELVOIR     SUNNY     84  71  65 CALM      29.97S
QUANTICO       PTSUNNY   86  74  67 S6        29.98S HX  94
COLLEGE PARK*  MOSUNNY   85  67  53 N6        29.97F
LEESBURG*      MOSUNNY   86  70  58 CALM      30.00S HX  90
MANASSAS*      SUNNY     87  70  56 CALM      29.98S HX  92
GAITHERSBURG*  SUNNY     82  71  69 CALM      30.01S

$$

MDZ006>007-011-014-170000-
BALTIMORE METRO

CITY           SKY/WX    TMP DP  RH WIND       PRES   REMARKS
BWI AIRPORT    MOSUNNY   84  72  67 SE8       29.97S
MD SCIENCE CTR   N/A     87  68  52 MISG      29.96R HX  90
MARTIN STATE   MOSUNNY   84  77  79 E3        30.00R HX  94
ANNAPOLIS      MOSUNNY   86  77  74 NE8       29.98R HX  97
FORT MEADE*    MOSUNNY   79  72  78 CALM      30.00S

$$

MDZ012-015-019>023-170000-
MARYLAND EASTERN SHORE

CITY           SKY/WX    TMP DP  RH WIND       PRES   REMARKS
OCEAN CITY     CLOUDY    78  73  84 S5        30.00R
SALISBURY      MOCLDY    81  75  82 SE9       29.98R
BAY BRIDGE AP* CLOUDY    84  73  70 N3        29.98S HX  91
CAMBRIDGE*     CLEAR     84  72  65 CALM      29.98R
EASTON*        PTCLDY    86  72  62 CALM      30.01S HX  92

$$

MDZ017>025-170000-
SOUTHERN MARYLAND

CITY           SKY/WX    TMP DP  RH WIND       PRES   REMARKS
PATUXENT RIVER PTSUNNY   82  76  81 SE7       29.97S
ST INIGOES     SUNNY     81  75  82 SE5       29.97S
LEONARDTOWN*   CLOUDY    82  72  69 CALM      30.00R

$$

MDZ003>005-170000-
NORTH CENTRAL MARYLAND

CITY           SKY/WX    TMP DP  RH WIND       PRES   REMARKS
FREDERICK*     MOSUNNY   84  68  58 VRB3      30.01F
HAGERSTOWN APT SUNNY     85  64  49 NE7       30.00S
WESTMINSTER*   SUNNY     86  66  51 N3        30.01F

$$

MDZ501>502-170000-
WESTERN MARYLAND

CITY           SKY/WX    TMP DP  RH WIND       PRES   REMARKS
OAKLAND*       SUNNY     70  63  78 CALM      30.10F
CUMBERLAND*    MOSUNNY   86  61  42 N3        30.05R

$$

VAZ025>031-170000-
SHENANDOAH VALLEY

CITY           SKY/WX    TMP DP  RH WIND       PRES   REMARKS
WINCHESTER*    MOSUNNY   81  70  69 E3        30.00F
FRONT ROYAL*   CLOUDY    84  72  65 CALM      29.99F
LURAY*         CLOUDY    81  72  74 CALM      30.01S
NEW MARKET*    CLOUDY    79  71  75 CALM      29.99S
STAUNTON*      SUNNY     83  65  54 CALM      30.04S
WAYNESBORO*    SUNNY     84  69  60 CALM      30.04S

$$

WVZ021-048>050-054>055-170000-
EASTERN WEST VIRGINIA PANHANDLE

CITY           SKY/WX    TMP DP  RH WIND       PRES   REMARKS
MARTINSBURG    MOSUNNY   84  70  61 CALM      29.99S
PETERSBURG*    MOSUNNY   83  78  84 CALM      30.01F HX  92

$$

VAZ036>039-050-170000-
CENTRAL FOOTHILLS

CITY           SKY/WX    TMP DP  RH WIND       PRES   REMARKS
CHARLOTTESVILL MOSUNNY   88  68  51 VRB5      29.99S HX  91
CULPEPER*      CLOUDY    83  74  76 CALM      29.99S
ORANGE*        MOSUNNY   82  70  65 CALM      29.99R
GORDONSVILLE*  PTSUNNY   85  73  67 CALM      29.98S HX  92
WARRENTON*     NOT AVBL

$$

VAZ055>057-170000-
NORTH AND CENTRAL PIEDMONT

CITY           SKY/WX    TMP DP  RH WIND       PRES   REMARKS
FREDERICKSBRG* SUNNY     86  73  64 S3        29.97S HX  93
STAFFORD*      SUNNY     82  73  74 CALM      30.02S

$$

NCZ024-NYZ072-PAZ021-071-VAZ022-071-170000-
OTHER REGIONAL OBSERVATIONS

CITY           SKY/WX    TMP DP  RH WIND       PRES   REMARKS
NEW YORK CITY  CLEAR     82  61  48 CALM      29.99R
PHILADELPHIA   PTCLDY    85  61  44 N8        29.97R
PITTSBURGH     MOSUNNY   83  60  45 NE8       30.03F
ROANOKE        MOSUNNY   87  66  49 SE8       30.03S
RICHMOND       PTSUNNY   85  72  65 S5        29.98S HX  91
RALEIGH        MOSUNNY   88  71  57 E7        30.00S HX  94

$$

ANZ530>537-170000-
MARINE OBSERVATIONS

STATION/POSITION TIME  TEMP    WIND        PRES
                       AIR SEA DIR/SP/G
                 (UTC) (F)     (DEG/KT/KT) (MB)
THOMAS PT LIGHT  2300   83 80   70/  3/  4   N/A
BALT KEY BRIDGE  2248   81     140/  5/  6 1015.0S
COVE POINT       2248   82     190/  7/  9 1015.6F
LEWISETTA        2248   83 83  150/  5/  6 1015.1R
SOLOMONS ISLAND  2248   83 81  150/  6/  7   N/A
PINEY POINT      2248          160/  5/  7   N/A

$$


Close this window


The National Weather Service prepares its forecasts and other services in collaboration with agencies like the US Geological Survey, US Bureau of Reclamation, US Army Corps of Engineers, Natural Resource Conservation Service, National Park Service, ALERT Users Group, Bureau of Indian Affairs, and many state and local emergency managers across the country. For details, please click here.

National Weather Service
(Baltimore/Washington) Sterling Weather Forecast Office
43858 Weather Service Rd.
Sterling, VA 20166
(703) 996-2200
Page last modified: 16-Aug-2017 11:11 PM
Disclaimer
Credits
Glossary
Privacy Policy
About Us
Career Opportunities